User: anonymous   Login
Location: Miami, Florida
(25.6830°N, 80.1700°W)
Time: 18:07:49
(UTC-04:00)
Language:

N. Korean satellite - Orbit

View from above orbital plane
View from above orbital plane
View from above satellite
View from above satellite

Ground track
Ground track

The orbit data is extracted from the following two-line orbital elements,

1 39026U 12072A   17326.59282485 +.00002683 +00000-0 +10458-3 0  9994
2 39026 097.2172 339.0226 0039262 338.4236 021.5346 15.26101547274080
Epoch (UTC): 22 November 2017 14:13:40
Eccentricity: 0.0039262
inclination: 97.2172°
perigee height: 460 km
apogee height: 514 km
right ascension of ascending node: 339.0226°
argument of perigee: 338.4236°
revolutions per day: 15.26101547
mean anomaly at epoch: 21.5346°
orbit number at epoch: 27408

The dashed part of the orbit path shows where the satellite is in the earth's shadow,  

DLR